Location: Augsburg
(48.3836°N, 10.8929°E)
Time: 16:44:04
(UTC+01:00)

Envisat - Visible Passes

Search period start: 23 January 2018 00:00
Search period end: 02 February 2018 00:00
Orbit: 764 x 766 km, 98.2° (Epoch: 23 January)

Date Brightness Start Highest point End Pass type
(mag) Time Alt. Az. Time Alt. Az. Time Alt. Az.
23 Jan 4.6 17:55:47 11° ENE 17:57:34 13° NE 17:59:57 10° NNE visible
23 Jan 2.8 19:35:57 75° NE 19:35:57 75° NE 19:40:51 10° N visible
23 Jan 5.6 21:16:09 16° WNW 21:16:09 16° WNW 21:18:28 10° NW visible
24 Jan 3.4 18:58:33 37° E 18:59:10 38° ENE 19:03:52 10° N visible
24 Jan 4.6 20:38:44 32° W 20:38:44 32° W 20:42:49 10° NNW visible
25 Jan 4.2 18:21:06 18° E 18:22:48 21° ENE 18:26:30 10° NNE visible
25 Jan 3.2 20:01:17 66° WSW 20:01:20 66° WSW 20:06:26 10° NNW visible
26 Jan 4.8 17:45:12 10° ENE 17:46:36 11° NE 17:48:01 10° NE visible
26 Jan 2.9 19:23:51 54° ESE 19:24:38 62° ENE 19:29:40 10° N visible
26 Jan 5.3 21:04:01 20° W 21:04:05 20° W 21:07:47 10° NW visible
27 Jan 3.7 18:46:23 25° E 18:48:08 32° ENE 18:52:36 10° N visible
27 Jan 4.2 20:26:35 39° WSW 20:27:03 40° W 20:31:50 10° NNW visible
28 Jan 4.4 18:08:56 11° E 18:11:48 17° ENE 18:15:03 10° NNE visible
28 Jan 3.0 19:49:07 56° S 19:50:12 81° WSW 19:55:20 10° NNW visible
28 Jan 5.9 21:29:18 11° W 21:30:03 12° W 21:31:49 10° WNW visible
29 Jan 3.1 19:11:39 33° ESE 19:13:33 50° ENE 19:18:28 10° N visible
29 Jan 5.0 20:51:49 23° WSW 20:52:51 24° W 20:56:58 10° NW visible
30 Jan 3.9 18:34:10 16° ESE 18:37:05 26° ENE 18:41:17 10° N visible
30 Jan 3.8 20:14:21 37° SW 20:15:52 49° W 20:20:48 10° NNW visible
31 Jan 4.6 17:58:09 10° E 18:00:49 14° NE 18:03:30 10° NNE visible
31 Jan 2.8 19:36:52 35° SSE 19:39:04 82° ENE 19:44:11 10° NNW visible
31 Jan 5.7 21:17:03 13° WSW 21:18:45 15° W 21:21:33 10° NW visible
01 Feb 3.3 18:59:22 20° SE 19:02:28 41° ENE 19:07:14 10° N visible
01 Feb 4.7 20:39:34 22° SW 20:41:37 30° W 20:46:04 10° NNW visible
